Regional Weather Roundup
Issued by NWS

Home | Current Version | Previous Version | Graphics & Text | Print | Product List | Glossary On
Versions: 1 2 3 4 5 6 7 8 9 10 11 12 13 14 15 16 17 18 19 20 21 22 23 24 25 26 27 28 29 30 31 32 33 34 35 36 37 38 39 40 41 42 43 44 45 46 47 48 49 50
000
ASUS43 KDMX 031107
RWRIA

WEATHER ROUNDUP FOR IOWA
NATIONAL WEATHER SERVICE DES MOINES IA
600 AM CDT SUN MAY 03 2015

NOTE: "FAIR" INDICATES FEW OR NO CLOUDS BELOW 12,000 FEET WITH NO
SIGNIFICANT WEATHER AND/OR OBSTRUCTIONS TO VISIBILITY.

* - THESE STATIONS ARE NOT NWS STATIONS...THUS NOT UNDER NWS
QUALITY CONTROL.  THEY ALSO DO NOT REPORT WEATHER SUCH
AS PRECIPITATION OR FOG.

IAZ001>003-012>014-020>022-031>034-043>046-031200-
   NORTHWEST IOWA

CITY           SKY/WX    TMP DP  RH WIND       PRES   REMARKS
CARROLL *      CLEAR     57  55  94 S9        29.74S
CHEROKEE *     PTCLDY    48  48 100 CALM      29.72S
DENISON *      CLEAR     59  59 100 SW6       29.72R
LE MARS *      CLEAR     59  50  72 S8        29.71S
ORANGE CITY *  CLEAR     55  48  76 S7        29.71R
SHELDON *      CLEAR     54  52  94 CALM      29.71R
SIOUX CITY     CLEAR     61  49  64 SE5       29.70F
SPENCER        CLOUDY    51  48  89 E5        29.73S
STORM LAKE *   CLEAR     52  50  93 S5        29.75R
$$

IAZ055>058-069>071-079>083-090>094-031200-
   SOUTHWEST IOWA

CITY           SKY/WX    TMP DP  RH WIND       PRES   REMARKS
ATLANTIC *     CLEAR     59  57  94 S9        29.75R
AUDUBON *      CLEAR     59  54  82 S3        29.75S
CLARINDA *     CLEAR     57  55  94 S6        29.83F
COUNCIL BLFS * CLEAR     61  61 100 S14G21    29.76F
CRESTON *      PTCLDY    59  57  94 S22       29.79F
HARLAN  *      CLEAR     59  59 100 S14       29.77S
LAMONI         LGT RAIN  60  53  77 S13       29.85F
RED OAK *      MOCLDY    61  57  88 S10       29.79F
SHENANDOAH *   PTCLDY    61  55  82 SE12      29.81F
$$

IAZ047>049-059>061-072>074-084-031200-
   CENTRAL IOWA

CITY           SKY/WX    TMP DP  RH WIND       PRES   REMARKS
AMES           CLOUDY    58  51  78 SE13G21   29.76F
ANKENY *       CLOUDY    61  55  82 S6G12     29.76S
CHARITON *     CLOUDY    59  54  82 S10       29.85F
DES MOINES     CLOUDY    61  56  83 S12       29.76F
GRINNELL*      CLOUDY    55  50  82 SE10      29.83F
KNOXVILLE *    CLOUDY    59  54  82 S14G20    29.82S HAZE
MARSHALLTOWN   CLOUDY    56  51  84 SE12      29.80F
PELLA *        CLOUDY    57  54  88 S12       29.84F
PERRY *          N/A     59  55  88 S8        29.75F
$$

IAZ004>006-015-016-023>025-035-036-031200-
   NORTH CENTRAL IOWA

CITY           SKY/WX    TMP DP  RH WIND       PRES   REMARKS
ALGONA *       PTCLDY    55  54  94 SE13      29.76R
CLARION *      CLEAR     57  52  82 SE14      29.76S
ESTHERVILLE    CLOUDY    52  50  93 S8        29.73F
FORT DODGE *   CLOUDY    55  48  76 E6        29.76R
MASON CITY     CLOUDY    54  51  90 S9        29.78F
FOREST CITY *  CLEAR     55  50  82 S10       29.76F
IOWA FALLS *     N/A     57  52  82 SE13      29.79F
$$

IAZ007>011-017>019-026>030-037>042-050>054-066-031200-
   NORTHEAST IOWA

CITY           SKY/WX    TMP DP  RH WIND       PRES   REMARKS
CEDAR RAPIDS   CLOUDY    61  50  67 S16       29.86F
CHARLES CITY * CLOUDY    55  54  94 S10G17    29.79F
CLINTON *        N/A     55  46  71 S6        29.94S
DECORAH *      PTCLDY    59  48  67 S8        29.81F
DUBUQUE        CLOUDY    56  49  77 S12       29.89S
MONTICELLO *   PTCLDY    57  52  82 SE7       29.87F
OELWEIN *      PTCLDY    59  48  67 S20       29.82F
WATERLOO       CLOUDY    57  51  80 S16       29.79F
$$

IAZ064-065-067-068-078-031200-
   EAST CENTRAL IOWA

CITY           SKY/WX    TMP DP  RH WIND       PRES   REMARKS
DAVENPORT      LGT RAIN  60  53  77 S14       29.90F
IOWA CITY      CLOUDY    61  51  70 SE12      29.90S
MT. PLEASANT * CLOUDY    57  48  72 SE7       29.91S
MUSCATINE *    CLOUDY    59  54  82 SE7       29.90F
QUAD CITIES    TSTM      57  53  86 W6        29.93R FOG
$$

IAZ062-063-075>077-085>089-095>099-031200-
   SOUTHEAST IOWA

CITY           SKY/WX    TMP DP  RH WIND       PRES   REMARKS
BURLINGTON     CLOUDY    59  48  67 S8        29.92S
FAIRFIELD *    MOCLDY    54  50  87 SE6       29.89S
FORT MADISON * CLEAR     57  48  72 S8        29.93R
KEOKUK *       CLEAR     61  48  63 S10       29.91S
OSKALOOSA *      N/A     55  50  82 S8        29.87S
CENTERVILLE *  CLEAR     59  54  82 S8        29.88F
OTTUMWA        CLOUDY    56  51  84 S12       29.86F
WASHINGTON *   CLOUDY    57  57 100 SE12      29.89F
$$

ABBREVIATIONS USED IN REMARKS
   TC - TEMPERATURES IN CELSIUS
  WCI - WIND CHILL INDEX
   HX - HEAT INDEX
  VSB - VISIBILITY
$$




USA.gov is the U.S. government's official web portal to all federal, state and local government web resources and services.